TimeADT,TemperatureF,Dew PointF,Humidity,Sea Level PressureIn,VisibilityMPH,Wind Direction,Wind SpeedMPH,Gust SpeedMPH,PrecipitationIn,Events,Conditions,WindDirDegrees,DateUTC
12:00 AM,36.5,26.2,66,30.22,-9999.0,SSE,13.8,-,N/A,,Unknown,150,2013-03-12 03:00:00
12:20 AM,36.7,25.3,64,-9999,-9999.0,SSE,10.4,-,N/A,,Unknown,150,2013-03-12 03:20:00
12:40 AM,36.5,25.2,64,-9999,-9999.0,SE,9.2,-,N/A,,Unknown,140,2013-03-12 03:40:00
1:00 AM,37.6,21.7,53,30.25,-9999.0,South,11.5,-,N/A,,Unknown,170,2013-03-12 04:00:00
1:20 AM,37.9,21.2,51,-9999,-9999.0,South,9.2,-,N/A,,Unknown,180,2013-03-12 04:20:00
1:40 AM,37.9,20.5,49,-9999,-9999.0,South,9.2,-,N/A,,Unknown,170,2013-03-12 04:40:00
2:00 AM,37.2,20.8,52,30.25,-9999.0,South,9.2,-,N/A,,Unknown,170,2013-03-12 05:00:00
2:20 AM,38.8,20.5,48,-9999,-9999.0,SSE,11.5,-,N/A,,Unknown,160,2013-03-12 05:20:00
2:40 AM,40.1,21.2,47,-9999,-9999.0,South,10.4,-,N/A,,Unknown,170,2013-03-12 05:40:00
3:00 AM,-18,-23,66,29.92,7,ESE,10.4,,,,,120,2013-03-12 06:00:00
3:00 AM,39.4,21.7,49,30.25,-9999.0,South,11.5,-,N/A,,Unknown,170,2013-03-12 06:00:00
3:20 AM,39.9,20.8,47,-9999,-9999.0,South,9.2,-,N/A,,Unknown,170,2013-03-12 06:20:00
4:00 AM,38.5,19.8,47,30.25,-9999.0,South,9.2,-,N/A,,Unknown,170,2013-03-12 07:00:00
4:20 AM,38.1,19.4,47,-9999,-9999.0,South,6.9,-,N/A,,Unknown,180,2013-03-12 07:20:00
4:40 AM,39.4,20.7,47,-9999,-9999.0,SSE,9.2,-,N/A,,Unknown,160,2013-03-12 07:40:00
5:00 AM,40.3,19.9,44,30.25,-9999.0,South,11.5,-,N/A,,Unknown,170,2013-03-12 08:00:00
5:20 AM,40.6,19.4,43,-9999,-9999.0,South,9.2,-,N/A,,Unknown,170,2013-03-12 08:20:00
5:40 AM,40.8,19.6,43,-9999,-9999.0,South,9.2,-,N/A,,Unknown,170,2013-03-12 08:40:00
6:00 AM,40.3,19.0,43,30.26,-9999.0,SSE,11.5,-,N/A,,Unknown,160,2013-03-12 09:00:00
6:20 AM,40.3,19.9,44,-9999,-9999.0,South,9.2,-,N/A,,Unknown,180,2013-03-12 09:20:00
6:40 AM,39.4,19.6,45,-9999,-9999.0,South,8.1,-,N/A,,Unknown,180,2013-03-12 09:40:00
7:00 AM,40.3,21.2,47,30.30,-9999.0,South,10.4,-,N/A,,Unknown,180,2013-03-12 10:00:00
7:20 AM,41.2,21.2,45,-9999,-9999.0,SSE,11.5,-,N/A,,Unknown,160,2013-03-12 10:20:00
7:40 AM,40.6,21.7,47,-9999,-9999.0,SSE,13.8,-,N/A,,Unknown,160,2013-03-12 10:40:00
8:00 AM,40.3,21.9,48,30.27,-9999.0,SSE,15.0,-,N/A,,Unknown,150,2013-03-12 11:00:00
8:20 AM,41.5,20.8,44,-9999,-9999.0,South,10.4,-,N/A,,Unknown,170,2013-03-12 11:20:00
8:40 AM,41.5,20.7,43,-9999,-9999.0,SSE,10.4,-,N/A,,Unknown,160,2013-03-12 11:40:00
9:00 AM,-20,-25,64,29.91,7,NE,9.2,,,,Overcast,50,2013-03-12 12:00:00
9:00 AM,43.0,21.0,42,30.30,-9999.0,South,15.0,-,N/A,,Unknown,180,2013-03-12 12:00:00
9:20 AM,44.2,20.5,39,-9999,-9999.0,South,8.1,-,N/A,,Unknown,170,2013-03-12 12:20:00
9:40 AM,45.1,20.1,37,-9999,-9999.0,South,8.1,-,N/A,,Unknown,170,2013-03-12 12:40:00
10:00 AM,46.8,18.9,33,30.30,-9999.0,South,9.2,-,N/A,,Unknown,170,2013-03-12 13:00:00
10:20 AM,47.5,20.3,34,-9999,-9999.0,South,9.2,-,N/A,,Unknown,180,2013-03-12 13:20:00
10:40 AM,48.2,18.7,31,-9999,-9999.0,South,10.4,-,N/A,,Unknown,190,2013-03-12 13:40:00
11:00 AM,47.5,25.2,42,30.28,-9999.0,South,10.4,-,N/A,,Unknown,190,2013-03-12 14:00:00
11:20 AM,40.5,28.4,62,-9999,-9999.0,SW,13.8,-,N/A,,Unknown,220,2013-03-12 14:20:00
11:40 AM,43.5,28.0,54,-9999,-9999.0,SW,12.7,-,N/A,,Unknown,220,2013-03-12 14:40:00
12:00 PM,41.9,28.8,60,30.30,-9999.0,SW,16.1,-,N/A,,Unknown,230,2013-03-12 15:00:00
12:20 PM,48.7,25.7,41,-9999,-9999.0,SSW,11.5,-,N/A,,Unknown,210,2013-03-12 15:20:00
12:40 PM,52.7,22.3,31,-9999,-9999.0,South,13.8,21.9,N/A,,Unknown,190,2013-03-12 15:40:00
1:00 PM,53.1,20.3,28,30.27,-9999.0,South,16.1,-,N/A,,Unknown,170,2013-03-12 16:00:00
1:20 PM,53.8,21.6,28,-9999,-9999.0,SSW,12.7,-,N/A,,Unknown,200,2013-03-12 16:20:00
1:40 PM,48.9,26.2,41,-9999,-9999.0,SSW,13.8,-,N/A,,Unknown,210,2013-03-12 16:40:00
2:00 PM,51.6,22.3,32,30.25,-9999.0,SSW,13.8,-,N/A,,Unknown,200,2013-03-12 17:00:00
2:20 PM,43.0,29.8,60,-9999,-9999.0,SW,6.9,-,N/A,,Unknown,230,2013-03-12 17:20:00
2:40 PM,48.9,26.1,41,-9999,-9999.0,SSW,4.6,-,N/A,,Unknown,200,2013-03-12 17:40:00
3:00 PM,-18,-24,62,29.93,3,NNE,12.7,,,,Light Haze,20,2013-03-12 18:00:00
3:00 PM,37.6,30.6,76,30.25,-9999.0,WSW,16.1,-,N/A,,Unknown,240,2013-03-12 18:00:00
3:20 PM,44.2,29.7,57,-9999,-9999.0,East,3.5,-,N/A,,Unknown,90,2013-03-12 18:20:00
3:40 PM,50.7,23.0,34,-9999,-9999.0,South,11.5,-,N/A,,Unknown,170,2013-03-12 18:40:00
4:00 PM,49.6,24.8,38,30.27,-9999.0,SSW,16.1,-,N/A,,Unknown,200,2013-03-12 19:00:00
4:20 PM,50.7,21.7,32,-9999,-9999.0,South,11.5,20.7,N/A,,Unknown,190,2013-03-12 19:20:00
4:40 PM,51.8,22.6,32,-9999,-9999.0,South,15.0,20.7,N/A,,Unknown,170,2013-03-12 19:40:00
5:00 PM,50.2,22.3,34,30.25,-9999.0,South,16.1,21.9,N/A,,Unknown,180,2013-03-12 20:00:00
5:20 PM,50.5,23.5,35,-9999,-9999.0,South,11.5,19.6,N/A,,Unknown,170,2013-03-12 20:20:00
5:40 PM,47.5,24.3,40,-9999,-9999.0,South,8.1,-,N/A,,Unknown,180,2013-03-12 20:40:00
6:00 PM,47.1,24.4,41,30.27,-9999.0,South,16.1,-,N/A,,Unknown,180,2013-03-12 21:00:00
6:20 PM,46.0,23.9,42,-9999,-9999.0,South,9.2,-,N/A,,Unknown,180,2013-03-12 21:20:00
6:40 PM,45.7,23.4,41,-9999,-9999.0,SSE,10.4,-,N/A,,Unknown,160,2013-03-12 21:40:00
7:00 PM,45.5,21.0,38,30.26,-9999.0,SSE,10.4,-,N/A,,Unknown,160,2013-03-12 22:00:00
7:20 PM,45.3,19.6,36,-9999,-9999.0,SSE,10.4,-,N/A,,Unknown,160,2013-03-12 22:20:00
7:40 PM,44.4,21.7,41,-9999,-9999.0,SSE,8.1,-,N/A,,Unknown,150,2013-03-12 22:40:00
8:00 PM,44.6,22.3,41,30.26,-9999.0,SSE,11.5,-,N/A,,Unknown,160,2013-03-12 23:00:00
8:20 PM,45.1,21.6,39,-9999,-9999.0,South,8.1,-,N/A,,Unknown,190,2013-03-12 23:20:00
8:40 PM,36.3,28.9,75,-9999,-9999.0,SW,6.9,-,N/A,,Unknown,230,2013-03-12 23:40:00
9:00 PM,-20,-25,64,29.98,4,NNW,16.1,,,Snow,Light Snow,340,2013-03-13 00:00:00
9:00 PM,39.6,27.1,61,30.29,-9999.0,SSW,10.4,-,N/A,,Unknown,210,2013-03-13 00:00:00
9:20 PM,36.3,30.4,79,-9999,-9999.0,SW,10.4,-,N/A,,Unknown,220,2013-03-13 00:20:00
9:40 PM,38.1,30.2,73,-9999,-9999.0,SW,9.2,-,N/A,,Unknown,220,2013-03-13 00:40:00
10:00 PM,38.8,30.4,72,30.28,-9999.0,SSW,10.4,-,N/A,,Unknown,210,2013-03-13 01:00:00
10:20 PM,39.6,31.8,74,-9999,-9999.0,South,6.9,-,N/A,,Unknown,180,2013-03-13 01:20:00
10:40 PM,40.3,34.7,80,-9999,-9999.0,South,10.4,-,N/A,,Unknown,170,2013-03-13 01:40:00
11:00 PM,41.2,36.0,82,30.27,-9999.0,SSE,13.8,-,N/A,,Unknown,160,2013-03-13 02:00:00
11:20 PM,41.7,36.9,83,-9999,-9999.0,South,12.7,19.6,N/A,,Unknown,170,2013-03-13 02:20:00
11:40 PM,42.6,38.1,84,-9999,-9999.0,South,11.5,18.4,N/A,,Unknown,180,2013-03-13 02:40:00